Location: Juzet
(42.9779°N, 0.7597°E)
Time: 02:58:13
(UTC+00:00)

PSLV R/B - Pass Details

Date: 14 July 2020
Orbit: 595 x 628 km, 97.9° (Epoch: 04 August)

Event Time Altitude Azimuth Distance (km) Brightness Sun altitude
Rises 03:39:58 0° 16° (NNE) 2,891 8.0 -8.4°
Reaches altitude 10° 03:42:11 10° 20° (NNE) 1,986 7.2 -8.1°
Maximum altitude 03:46:27 60° 101° (E) 710 4.1 -7.5°
Drops below altitude 10° 03:50:44 10° 182° (S) 1,988 5.8 -6.9°
Sets 03:52:57 0° 186° (S) 2,894 6.6 -6.6°
